Location: Soapstone Prairie Natural Area
(40.9437°N, 105.0829°W)
Time: 08:23:08
(UTC-06:00)

ISS - Visible Passes

Search period start: 28 July 2014 00:00
Search period end: 07 August 2014 00:00
Orbit: 411 x 420 km, 51.6° (Epoch: 28 July)

Date Brightness Start Highest point End Pass type
(mag) Time Alt. Az. Time Alt. Az. Time Alt. Az.
28 Jul -0.5 02:31:25 17° NNW 02:31:43 17° NNW 02:33:59 10° NNE visible
28 Jul -0.2 04:07:35 10° NNW 04:09:28 14° N 04:11:21 10° NE visible
29 Jul -0.2 01:44:14 16° NNE 01:44:14 16° NNE 01:45:18 10° NNE visible
29 Jul -0.2 03:18:38 10° NNW 03:20:23 13° N 03:22:07 10° NNE visible
29 Jul -0.7 04:55:14 10° NW 04:58:01 23° NNE 05:00:48 10° ENE visible
30 Jul -0.2 02:29:55 11° NNW 02:31:17 14° N 02:33:04 10° NNE visible
30 Jul -0.4 04:06:34 10° NNW 04:09:00 18° NNE 04:11:27 10° ENE visible
31 Jul 0.0 01:42:48 14° N 01:42:48 14° N 01:44:12 10° NNE visible
31 Jul -0.1 03:17:51 10° NNW 03:19:57 15° N 03:22:03 10° NE visible
31 Jul -2.0 04:54:04 10° NW 04:57:19 44° NNE 05:00:34 10° ESE visible
01 Aug 0.0 02:29:02 10° NNW 02:30:52 14° N 02:32:42 10° NE visible
01 Aug -1.2 04:05:22 10° NW 04:08:24 30° NNE 04:11:25 10° E visible
02 Aug 0.1 01:42:00 13° N 01:42:00 13° N 01:43:28 10° NNE visible
02 Aug -0.7 03:16:42 10° NNW 03:19:25 22° NNE 03:22:07 10° ENE visible
02 Aug -3.4 04:53:03 10° WNW 04:56:25 71° SW 04:59:45 10° SE visible
02 Aug -2.9 21:35:10 10° SSW 21:38:18 40° SE 21:41:14 11° ENE visible
02 Aug -1.1 23:12:07 10° W 23:14:22 26° NW 23:14:22 26° NW visible
03 Aug -0.3 02:29:24 16° N 02:30:22 18° NNE 02:32:44 10° ENE visible
03 Aug -2.9 04:04:14 10° NW 04:07:35 67° NE 04:10:55 10° ESE visible
03 Aug -2.1 20:46:55 10° S 20:49:36 23° SE 20:52:17 10° E visible
03 Aug -2.0 22:22:57 10° WSW 22:26:08 42° NNW 22:29:22 10° NE visible
04 Aug -0.1 00:01:28 10° NW 00:03:04 15° NNW 00:03:04 15° NNW visible
04 Aug -1.8 03:19:20 36° ENE 03:19:20 36° ENE 03:21:53 10° ESE visible
04 Aug -2.2 04:52:32 10° WNW 04:55:16 24° SW 04:58:03 10° S visible
04 Aug -3.0 21:33:56 10° WSW 21:37:15 71° NW 21:40:36 10° NE visible
04 Aug -0.4 23:12:04 10° WNW 23:14:27 18° NNW 23:16:50 10° NNE visible
05 Aug -3.3 20:45:08 10° SW 20:48:26 66° SE 20:51:45 10° ENE visible
05 Aug -0.7 22:22:41 10° WNW 22:25:24 23° NNW 22:28:08 10° NNE visible
06 Aug 0.0 00:01:20 10° NNW 00:02:49 13° N 00:02:49 13° N visible
06 Aug -1.3 21:33:23 10° W 21:36:24 31° NNW 21:39:25 10° NE visible
06 Aug -0.1 23:12:05 10° NW 23:13:55 14° N 23:15:42 10° NNE visible
